Flag for U.S.A. Weather past 2 weeks in San Antonio, Texas, U.S.A.

Now
63 °F

Low clouds.


Feels Like: 63 °F
Forecast: 58 / 71 °F
Wind: 3 mph from North

Location: San Antonio International Airport

Current Time: Dec 18, 2014 at 11:56:14 AM

Latest Report: Dec 18, 2014 at 10:51 AM


Visibility: 7 mi

Pressure: 30.09 "Hg

Humidity: 84%

Dew point: 58 °F

Location of San AntonioLocation

Historic Weather in San Antonio — Graph

°F

San Antonio temperature yesterday

Maximum temperature yesterday: 58 °F (at 9:51 PM)
Minimum temperature yesterday: 49 °F (at 9:51 AM)
Average temperature yesterday: 54 °F

Past Weeks' High & Low Weather Summary

 TemperatureHumidityPressure
High76 °F (Dec 15, 2:51 PM)97% (Dec 4, 4:51 AM)30.34 "Hg (Dec 4, 4:51 AM)
Low46 °F (Dec 9, 4:51 AM)20% (Dec 15, 3:51 PM)29.81 "Hg (Dec 14, 4:51 PM)
Average61 °F75%30.14 "Hg
* Reported Dec 3 9:57 AM — Dec 18 9:51 AM, San Antonio, Weather by CustomWeather, © 2014

Note: Actual official high and low records may vary slightly from our data, if they occured in-between our weather recording intervals... More about our weather records

Advertising

San Antonio weather history for previous 24 hours

 ConditionsComfort  
Time TempWeatherWind HumidityBarometerVisibility
9:51 AM
Dec 18
60 °FLow clouds.7 mph90%30.09 "Hg8 mi
8:51 AM59 °FMostly cloudy.5 mph90%30.08 "Hg8 mi
7:51 AM58 °FDrizzle. Fog.5 mph93%30.06 "Hg1 mi
6:51 AM57 °FFog.3 mph93%30.05 "Hg1 mi
5:51 AM57 °FDrizzle. Fog.6 mph93%30.03 "Hg1 mi
4:51 AM57 °FDrizzle. Fog.5 mph93%30.02 "Hg1 mi
3:51 AM57 °FDrizzle. Fog.5 mph96%30.02 "Hg0 mi
2:51 AM57 °FDrizzle. Fog.3 mph96%30.03 "Hg1 mi
1:51 AM57 °FFog.3 mph93%30.03 "Hg5 mi
12:51 AM57 °FFog.5 mph90%30.05 "Hg4 mi
11:51 PM
Dec 17
58 °FFog.6 mph90%30.06 "Hg4 mi
10:51 PM58 °FDrizzle. Fog.5 mph90%30.07 "Hg3 mi
9:51 PM58 °FFog.5 mph90%30.05 "Hg6 mi
8:51 PM57 °FDrizzle. Low clouds.7 mph90%30.06 "Hg8 mi
7:51 PM55 °FLow clouds.7 mph90%30.03 "Hg10 mi
6:51 PM55 °FMostly cloudy.3 mph90%30.01 "Hg10 mi
5:51 PM54 °FMostly cloudy.5 mph90%30.01 "Hg8 mi
4:51 PM54 °FLight rain. Fog.6 mph86%30.00 "Hg5 mi
3:51 PM54 °FOvercast.5 mph86%30.00 "Hg10 mi
2:51 PM53 °FOvercast.9 mph83%30.00 "Hg10 mi
1:51 PM50 °FOvercast.8 mph89%30.04 "Hg10 mi
12:51 PM50 °FFog.6 mph89%30.09 "Hg5 mi
11:51 AM51 °FOvercast.7 mph80%30.12 "Hg10 mi
Weather by CustomWeather, © 2014

See weather overviewHow to use our weather pages